[[{"header":{"parameterUnit":"m.s-1","parameterCategory":1,"la1":30.2991,"la2":30.254,"lo1":-89.0895,"lo2":-89.0444,"dy":0.0017,"dx":0.0017,"nx":28,"ny":28,"refTime":"2023-08-01T03:00:00:Z","depth":0,"parameterNumber":2,"parameterNumberName":"U-component_of_WINDS"},"data":[0,0,0,0,0,0,0,0,0,0,0,0,0,0,0,0,0,0,0,0,0,0,0,0,0,0,0,0,0,0,0,0,0,0,0,0,0,0,0,0,0,0,0,0,0,0,0,0,0,0,0,0,0,0,0,0,0,0,1.5368,1.537,0,1.5544,1.5546,1.5548,1.5609,1.5608,1.5608,1.5607,1.5788,1.5793,1.5799,0,0,0,0,0,0,0,0,0,0,0,0,0,1.5084,1.5089,1.5368,1.537,1.5372,1.5544,1.5546,1.5548,1.5609,1.5608,1.5607,1.5607,1.5786,1.5792,1.5799,0,0,0,0,0,0,0,0,0,0,0,0,0,1.5228,1.509,1.5367,1.5423,1.543,1.5543,1.5546,1.5549,1.5609,1.5608,1.5607,1.5606,1.5784,1.5792,1.58,1.5871,0,0,1.5825,1.5828,0,0,0,0,0,0,0,0,1.522,1.5239,1.5413,1.542,1.5427,1.5553,1.5512,1.5657,1.561,1.5541,1.5607,1.5606,1.5711,1.5725,1.576,1.5879,1.5887,1.5826,1.5831,1.5834,1.5836,0,0,0,0,0,0,0,1.521,1.5231,1.5438,1.5415,1.5424,1.5439,1.5459,1.554,1.563,1.5547,1.5552,1.5572,1.5715,1.5752,1.5765,1.589,1.5825,1.5833,1.5838,1.5841,1.6074,1.6075,0,0,0,0,0,0,1.5191,1.5223,1.5432,1.5443,1.5319,1.5445,1.5467,1.5514,1.5629,1.5645,1.5573,1.5574,1.5739,1.5755,1.5771,1.5861,1.5834,1.5842,1.5846,1.6073,1.6074,1.6076,0,0,0,0,0,0,1.5184,1.5209,1.5425,1.5334,1.5363,1.5451,1.5504,1.5518,1.5556,1.5648,1.5664,1.5594,1.5738,1.576,1.5845,1.5868,1.5845,1.5853,1.6071,1.6073,1.6075,1.604,0,0,0,0,0,0,1.5176,1.5206,1.5234,1.5334,1.5367,1.5496,1.5505,1.5522,1.5569,1.5573,1.5673,1.5689,1.5739,1.5833,1.5853,1.5879,1.5859,1.607,1.6072,1.6074,1.604,1.6041,1.6042,0,0,0,0,0,1.5166,1.5218,1.5235,1.526,1.5404,1.5497,1.5516,1.5573,1.5571,1.56,1.5659,1.5685,1.5862,1.5841,1.5865,1.5893,1.6068,1.6071,1.6074,1.6039,1.6041,1.6042,0,0,0,0,0,0,1.5118,1.5232,1.5253,1.5339,1.5407,1.5507,1.5545,1.5573,1.5644,1.5644,1.5712,1.5734,1.5814,1.5862,1.5836,1.5967,1.5967,1.5975,1.5932,1.5934,1.5935,1.5921,1.5866,0,0,0,0,0,1.5118,1.5183,1.5279,1.5346,1.538,1.5456,1.5499,1.5536,1.5611,1.564,1.5706,1.5777,1.5848,1.5894,1.5965,1.6047,1.6069,1.6078,1.6079,1.6079,1.6085,1.6131,1.6136,1.6085,1.6085,1.6085,0,0,1.5117,1.5188,1.5225,1.5338,1.5396,1.5462,1.548,1.555,1.5599,1.5651,1.5735,1.5785,1.5869,1.5953,1.5993,1.5995,1.6104,1.6083,1.6083,1.6089,1.6134,1.6139,1.6143,1.6087,1.6087,1.6087,0,0,1.5151,1.5211,1.5272,1.533,1.5417,1.5467,1.5482,1.5577,1.5612,1.5698,1.5737,1.5797,1.5919,1.5977,1.6022,1.6076,1.6102,1.6097,1.6102,1.6146,1.6149,1.6153,1.6171,1.6177,1.6103,1.6103,1.6103,0,1.5139,1.5241,1.53,1.5368,1.5416,1.5465,1.5527,1.558,1.5686,1.5718,1.5719,1.5872,1.5932,1.6029,1.6042,1.6078,1.6096,1.6086,1.6144,1.6149,1.6153,1.6171,1.6178,1.6101,1.6101,1.6102,1.6102,0,1.5222,1.5291,1.5331,1.5431,1.5483,1.5548,1.5617,1.5663,1.5696,1.5746,1.5832,1.5905,1.5991,1.6018,1.6051,1.6119,1.6118,1.6131,1.6132,1.6155,1.6173,1.6181,1.6099,1.61,1.61,1.6101,0,0,1.523,1.5362,1.5375,1.5421,1.552,1.5575,1.5641,1.5725,1.5762,1.5834,1.589,1.5992,1.6004,1.6055,1.6096,1.6134,1.617,1.6143,1.6145,1.6144,1.6249,1.6237,1.6245,1.6189,1.619,1.6192,1.6241,0,1.5275,1.5396,1.5451,1.5547,1.5611,1.5658,1.5716,1.5783,1.5831,1.5892,1.5946,1.6016,1.6028,1.6059,1.6099,1.6157,1.6192,1.6155,1.6242,1.6244,1.6218,1.6254,1.6243,1.6287,1.6249,1.625,1.6251,0,1.5344,1.5415,1.5516,1.5607,1.5636,1.5687,1.5767,1.5826,1.5902,1.5934,1.5991,1.6029,1.61,1.6097,1.6195,1.6168,1.6207,1.6241,1.6244,1.6254,1.6248,1.6264,1.6302,1.6308,1.6263,1.6262,1.6261,0,1.5338,1.5459,1.5535,1.5573,1.568,1.5715,1.5761,1.5837,1.5883,1.5954,1.5984,1.6062,1.6104,1.6164,1.6222,1.6214,1.6314,1.6316,1.6343,1.6341,1.6361,1.6359,1.6405,1.6387,1.6387,1.6387,1.6387,0,1.5383,1.5443,1.5534,1.558,1.5649,1.5712,1.5778,1.5828,1.5894,1.5951,1.5997,1.6049,1.6123,1.6185,1.6231,1.6305,1.6324,1.6352,1.6363,1.6348,1.6344,1.6373,1.6372,1.6389,1.6389,1.6388,1.6388,0,1.5388,1.5451,1.5537,1.5632,1.5657,1.5703,1.5784,1.5831,1.5881,1.5952,1.5973,1.6052,1.6126,1.619,1.629,1.632,1.6396,1.641,1.637,1.6376,1.6399,1.6395,1.6465,1.6477,1.6451,1.6451,1.6452,0,1.5411,1.5459,1.5558,1.5599,1.5645,1.5711,1.5758,1.5822,1.5869,1.5959,1.5995,1.6073,1.6138,1.6256,1.6322,1.6397,1.6413,1.6432,1.6425,1.6407,1.6413,1.6409,1.6413,1.6432,1.6432,1.6432,1.6432,0,1.5446,1.5475,1.5541,1.5618,1.5673,1.5737,1.5802,1.5833,1.5909,1.596,1.6036,1.6087,1.6188,1.6264,1.6347,1.6395,1.6426,1.6434,1.6444,1.6428,1.6402,1.6415,1.637,1.6432,1.6432,1.6432,1.6432,1.6432,1.5461,1.5504,1.5581,1.5653,1.5708,1.5768,1.5816,1.5872,1.5937,1.6023,1.6057,1.6135,1.621,1.6324,1.6371,1.6433,1.6438,1.6453,1.6456,1.6459,1.6456,1.6393,1.6449,1.6449,1.6449,1.6449,1.6449,0,1.5497,1.5548,1.5614,1.5703,1.5759,1.5784,1.5857,1.5902,1.597,1.6037,1.61,1.6188,1.6262,1.6334,1.6412,1.6447,1.6464,1.6466,1.6463,1.6474,1.6448,1.6431,1.6451,1.6451,1.6451,1.6451,1.6451,1.6451,1.5522,1.5597,1.5634,1.5737,1.5788,1.5865,1.5904,1.5959,1.6012,1.6108,1.617,1.6216,1.6284,1.6367,1.6436,1.6456,1.6482,1.648,1.6503,1.6477,1.6476,1.6475,1.6459,1.6485,1.6485,1.6524,1.6524,1.6524]},{"header":{"parameterUnit":"m.s-1","parameterCategory":1,"la1":30.2991,"la2":30.254,"lo1":-89.0895,"lo2":-89.0444,"dy":0.0017,"dx":0.0017,"nx":28,"ny":28,"refTime":"2023-08-01T03:00:00:Z","depth":0,"parameterNumber":3,"parameterNumberName":"V-component_of_WINDS"},"data":[0,0,0,0,0,0,0,0,0,0,0,0,0,0,0,0,0,0,0,0,0,0,0,0,0,0,0,0,0,0,0,0,0,0,0,0,0,0,0,0,0,0,0,0,0,0,0,0,0,0,0,0,0,0,0,0,0,0,3.8742,3.8741,0,3.8661,3.866,3.8659,3.8578,3.8577,3.8576,3.8575,3.8489,3.8487,3.8486,0,0,0,0,0,0,0,0,0,0,0,0,0,3.8821,3.882,3.8742,3.8741,3.874,3.8661,3.866,3.8659,3.8578,3.8577,3.8576,3.8575,3.8489,3.8488,3.8486,0,0,0,0,0,0,0,0,0,0,0,0,0,3.8769,3.882,3.8742,3.869,3.8685,3.8662,3.866,3.8659,3.8579,3.8577,3.8575,3.8574,3.849,3.8488,3.8486,3.8506,0,0,3.848,3.8479,0,0,0,0,0,0,0,0,3.8772,3.8766,3.8699,3.8694,3.8688,3.8628,3.8657,3.8608,3.8579,3.8619,3.8575,3.8573,3.8536,3.853,3.8519,3.8502,3.8499,3.848,3.8479,3.8478,3.8477,0,0,0,0,0,0,0,3.8775,3.8769,3.871,3.8698,3.8691,3.867,3.866,3.8647,3.8587,3.8615,3.8609,3.8601,3.8533,3.8521,3.8516,3.8497,3.848,3.8478,3.8477,3.8476,3.8493,3.8494,0,0,0,0,0,0,3.8787,3.8772,3.8712,3.8707,3.8727,3.867,3.8659,3.8649,3.8587,3.8577,3.8602,3.8598,3.8525,3.8518,3.8513,3.8532,3.8478,3.8476,3.8475,3.8491,3.8493,3.8495,0,0,0,0,0,0,3.879,3.8783,3.8716,3.8738,3.8728,3.867,3.8659,3.8648,3.8636,3.8578,3.8566,3.8601,3.8523,3.8515,3.8509,3.8528,3.8475,3.8473,3.8489,3.8492,3.8494,3.8572,0,0,0,0,0,0,3.8792,3.8784,3.8792,3.8739,3.8727,3.8714,3.866,3.8648,3.8633,3.8626,3.8574,3.8563,3.8521,3.8512,3.8507,3.8524,3.8472,3.8487,3.849,3.8493,3.8567,3.8577,3.8585,0,0,0,0,0,3.8795,3.8817,3.8793,3.8786,3.8736,3.8716,3.8709,3.8661,3.8635,3.8642,3.8605,3.8565,3.8527,3.8512,3.8505,3.8523,3.8486,3.8489,3.8493,3.8563,3.8575,3.8584,0,0,0,0,0,0,3.8872,3.8809,3.8782,3.8787,3.8758,3.8702,3.8709,3.8675,3.8651,3.8645,3.8586,3.8574,3.8574,3.8548,3.8532,3.8539,3.8501,3.8503,3.8556,3.8567,3.8575,3.8581,3.847,0,0,0,0,0,3.889,3.888,3.8824,3.8834,3.8821,3.8768,3.8757,3.8723,3.869,3.8677,3.8638,3.8606,3.8587,3.8575,3.8554,3.8563,3.855,3.8572,3.858,3.8588,3.859,3.8592,3.8601,3.8507,3.8507,3.8507,0,0,3.8926,3.889,3.8887,3.8849,3.8822,3.8811,3.8758,3.8749,3.8741,3.8675,3.8666,3.8637,3.8597,3.8599,3.8597,3.8576,3.8614,3.8592,3.8599,3.8597,3.8597,3.8606,3.8614,3.8509,3.8509,3.8508,0,0,3.8987,3.8959,3.8964,3.8938,3.8899,3.8864,3.8865,3.8815,3.8794,3.8785,3.8735,3.8723,3.8691,3.8665,3.8647,3.8698,3.8661,3.8693,3.8738,3.8741,3.8748,3.8754,3.8772,3.8779,3.8696,3.8696,3.8696,0,3.9036,3.902,3.897,3.8965,3.8949,3.8891,3.8894,3.8872,3.8827,3.8817,3.8795,3.8753,3.8722,3.8716,3.8729,3.8717,3.8715,3.8698,3.8751,3.8757,3.8762,3.8778,3.8785,3.87,3.87,3.8699,3.8699,0,3.9083,3.9072,3.908,3.904,3.9025,3.9025,3.8974,3.8964,3.8932,3.8899,3.889,3.8851,3.8821,3.8817,3.8784,3.8806,3.8794,3.8763,3.8723,3.8776,3.879,3.8796,3.8706,3.8705,3.8704,3.8702,0,0,3.9189,3.9122,3.9126,3.9107,3.9059,3.9049,3.9046,3.9018,3.901,3.8982,3.8976,3.8951,3.8921,3.8902,3.8865,3.8868,3.891,3.8836,3.8834,3.885,3.8931,3.8955,3.8963,3.8885,3.8886,3.8887,3.8934,0,3.9241,3.9232,3.9187,3.9191,3.918,3.9124,3.9121,3.9091,3.906,3.9045,3.901,3.8993,3.8955,3.8943,3.8943,3.8905,3.8926,3.8901,3.8878,3.8878,3.889,3.897,3.8996,3.9042,3.8939,3.894,3.8941,0,3.93,3.9277,3.928,3.9233,3.9226,3.9224,3.9195,3.9182,3.9146,3.9123,3.9102,3.9062,3.9053,3.9017,3.9003,3.8988,3.8976,3.8956,3.8957,3.8952,3.8913,3.8968,3.9056,3.9063,3.8949,3.8949,3.8948,0,3.9377,3.9346,3.9344,3.9329,3.9274,3.9274,3.925,3.9213,3.9199,3.9173,3.9163,3.9136,3.9121,3.91,3.9054,3.9032,3.9046,3.9005,3.9025,3.9027,3.903,3.9031,3.9117,3.9024,3.9024,3.9023,3.9023,0,3.9439,3.9443,3.9377,3.9376,3.9379,3.9327,3.933,3.9301,3.9269,3.926,3.9209,3.9202,3.9141,3.9126,3.9089,3.9084,3.9077,3.9057,3.9047,3.9062,3.9064,3.9053,3.9048,3.9025,3.9025,3.9024,3.9024,0,3.9525,3.9481,3.9475,3.9424,3.9411,3.9415,3.9371,3.9366,3.9333,3.9322,3.9316,3.9263,3.9243,3.9194,3.9161,3.9136,3.914,3.9122,3.9152,3.9146,3.9169,3.9167,3.9251,3.9259,3.9161,3.9162,3.9163,0,3.9568,3.957,3.9519,3.951,3.949,3.9476,3.9462,3.9411,3.9398,3.9357,3.9358,3.9334,3.9312,3.9282,3.9239,3.9213,3.9194,3.9225,3.919,3.9204,3.9194,3.9195,3.9194,3.9233,3.9234,3.9235,3.9236,0,3.9648,3.9626,3.9609,3.9584,3.9569,3.9546,3.952,3.9516,3.9458,3.9446,3.9425,3.9409,3.9375,3.9352,3.9319,3.9293,3.9255,3.9248,3.9251,3.9265,3.9283,3.9273,3.9173,3.9246,3.9245,3.9244,3.9244,3.9243,3.9713,3.9712,3.9677,3.9658,3.9634,3.9612,3.9605,3.9571,3.9554,3.9524,3.9494,3.9477,3.944,3.9393,3.937,3.9354,3.9335,3.9339,3.934,3.9342,3.9349,3.9286,3.9348,3.9348,3.9347,3.9347,3.9347,0,3.979,3.9765,3.9749,3.9715,3.9701,3.9668,3.9638,3.9627,3.9613,3.9583,3.9563,3.9539,3.9517,3.9472,3.9445,3.9441,3.9423,3.9436,3.9435,3.943,3.9368,3.9368,3.9451,3.9451,3.9451,3.9451,3.9451,3.9451,3.9829,3.9825,3.98,3.9784,3.9757,3.9741,3.9727,3.9705,3.9681,3.9658,3.9639,3.9611,3.9575,3.9544,3.9522,3.9509,3.9501,3.952,3.9502,3.9444,3.9434,3.9425,3.9424,3.9519,3.9519,3.9565,3.9565,3.9565]}]]